This is the latest recevied weather packets stored in our database for station/object KD4EED. If no packets are shown the sender has not sent any weather packets the latest 10 day(s).
| Time | Temp. | Humidity | Pressure | Rain* | Wind** | Luminosity | Snow |
|---|---|---|---|---|---|---|---|
| 1777904607 | 14.44° C | 76% | 1012.5 hPa | - | - | 58 W/m² | - |
| 1777904304 | 14.44° C | 76% | 1012.5 hPa | - | - | 42 W/m² | - |
| 1777904001 | 14.44° C | 76% | 1012.4 hPa | - | - | 26 W/m² | - |
| 1777903697 | 14.44° C | 76% | 1012.3 hPa | - | - | 32 W/m² | - |
| 1777903393 | 14.44° C | 76% | 1012.4 hPa | - | - | 37 W/m² | - |
| 1777903090 | 14.44° C | 77% | 1012.3 hPa | - | - | 28 W/m² | - |
| 1777902786 | 13.89° C | 77% | 1012.3 hPa | - | - | 20 W/m² | - |
| 1777902484 | 13.89° C | 77% | 1012.1 hPa | - | - | 25 W/m² | - |
| 1777902180 | 13.89° C | 77% | 1012.2 hPa | - | - | 21 W/m² | - |
| 1777901879 | 13.89° C | 77% | 1012.3 hPa | - | - | 18 W/m² | - |
| 1777901576 | 13.89° C | 78% | 1012.1 hPa | - | - | 16 W/m² | - |
| 1777901273 | 13.89° C | 78% | 1012 hPa | - | - | 11 W/m² | - |
| 1777900971 | 13.89° C | 83% | 1012.3 hPa | - | - | 8 W/m² | - |
| 1777900668 | 13.89° C | 82% | 1012.1 hPa | - | - | 6 W/m² | - |
| 1777900365 | 13.89° C | 82% | 1012.1 hPa | - | - | 4 W/m² | - |
| 1777900062 | 14.44° C | 82% | 1012.2 hPa | - | - | 2 W/m² | - |
| 1777899758 | 14.44° C | 82% | 1012 hPa | - | - | 1 W/m² | - |
| 1777899455 | 14.44° C | 82% | 1012.1 hPa | - | - | 1 W/m² | - |
| 1777899153 | 14.44° C | 82% | 1012 hPa | - | - | 0 W/m² | - |
| 1777898851 | 14.44° C | 81% | 1011.9 hPa | - | - | 0 W/m² | - |
| 1777898548 | 14.44° C | 81% | 1011.9 hPa | - | - | 0 W/m² | - |
| 1777898245 | 14.44° C | 81% | 1012 hPa | - | - | 0 W/m² | - |
| 1777897942 | 14.44° C | 81% | 1011.9 hPa | - | - | 0 W/m² | - |
| 1777897638 | 14.44° C | 81% | 1012 hPa | - | - | 0 W/m² | - |
| 1777897334 | 14.44° C | 80% | 1011.9 hPa | - | - | 0 W/m² | - |
* Rain since midnight (hover to see other rain measurements)
** Current wind speed in m/s (hover to see current wind gust speed)